Location: Copper Breaks State Park
(34.1132°N, 99.7492°W)
Time: 13:10:58
(UTC-06:00)

Daily predictions for brighter satellites

Satellite Brightness Start Highest point End
(mag) Time Altitude Azimuth Time Altitude Azimuth Time Altitude Azimuth
Cosmos 407 Rocket 4.4 18:45:57 10° SSE 18:50:18 27° E 18:54:41 10° NE
SL-08 R/B 4.5 18:45:34 10° S 18:51:35 69° E 18:57:42 10° NNE
Meteor 1-14 Rocket 4.4 18:46:26 10° S 18:52:16 66° E 18:58:12 10° NNE
SKYMED 2 3.8 18:48:09 10° N 18:52:30 75° WNW 18:56:49 10° SSW
Cosmos 1975 Rocket 3.3 18:49:18 10° N 18:53:28 46° E 18:57:36 10° SSE
METEOR-M 4.5 18:50:12 10° SE 18:55:14 44° ENE 19:00:17 10° N
Cosmos 1484 Rocket 3.6 18:53:48 10° S 18:57:45 58° W 19:01:40 10° NNW
ERBS 3.4 18:59:18 10° NNW 19:02:22 28° NE 19:05:24 10° ESE
NOAA 12 4.2 18:57:43 10° SSE 19:02:51 54° ENE 19:08:02 10° N
Cosmos 44 4.3 18:59:58 10° N 19:03:23 21° NE 19:06:43 10° ESE
Resurs 01 Rocket 3.0 19:01:57 10° ESE 19:05:03 19° ENE 19:08:09 10° NNE
Nadezhda 1 Rocket 4.1 19:00:30 10° N 19:06:24 51° E 19:12:16 10° SSE
H-2A ROCKET BODY 4.5 18:34:50 10° W 19:06:36 48° SW 19:12:43 10° SE
GEOS 3 Rocket 3.8 19:04:16 10° NNE 19:09:31 81° NW 19:14:48 10° SW
Cosmos 1190 Rocket 4.1 19:07:42 10° S 19:12:45 55° ESE 19:17:48 10° NNE
Meteor 1-20 Rocket 4.3 19:08:04 10° S 19:13:44 60° E 19:19:28 10° NNE
ASTRO E2 3.0 19:10:52 10° W 19:14:50 59° S 19:18:04 15° ESE
SL-16 R/B 2.9 19:10:23 10° N 19:15:29 33° ENE 19:20:33 10° SE
Cosmos 2360 4.2 19:10:52 10° NNW 19:16:37 80° ENE 19:22:20 10° SSE
Okean 1 4.1 19:15:39 10° NNE 19:19:14 29° ENE 19:22:48 10° SE
FREGAT/IRIS 2.7 19:16:52 10° SSE 19:19:52 54° ENE 19:22:54 10° N
OAO 3 Copernicus 4.3 19:19:18 10° W 19:24:24 88° N 19:27:59 20° E
Spot 2 Rocket 4.1 19:21:20 10° SE 19:25:50 34° ENE 19:30:20 10° N
Cosmos 1633 3.6 19:23:45 10° SE 19:26:47 24° E 19:28:24 18° NE
Helios 1B rocket 3.7 19:27:48 21° E 19:28:01 21° E 19:31:10 10° SE
Cosmos 1346 Rocket 4.3 19:30:28 10° NNW 19:34:09 39° W 19:37:47 10° SSW
Cosmos 1340 4.2 19:31:29 10° NNE 19:33:19 19° NE 19:33:19 19° NE
Cosmos 1709 Rocket 4.0 19:28:35 10° SSE 19:34:42 57° E 19:40:46 10° NNE
Resurs 1-3 4.2 19:31:00 10° SE 19:34:55 33° ENE 19:38:51 10° N
Cosmos 2322 Rocket 2.3 19:30:16 10° N 19:35:44 51° ENE 19:41:10 10° SE
Okean 2 Rocket 4.3 19:31:42 10° SSW 19:35:59 45° W 19:40:16 10° N
HJ-1C 3.4 19:33:46 10° SSE 19:37:04 53° ENE 19:40:22 10° N
ALOS 2.2 19:36:23 10° SSE 19:41:00 65° ENE 19:45:37 10° N
ATLAS CENTAUR R/B 4.2 19:38:49 10° SSE 19:41:24 13° SE 19:41:26 13° SE
Cosmos 1954 Rocket 4.2 19:37:07 10° S 19:42:03 47° ESE 19:47:00 10° NNE
Cosmos 1300 Rocket 3.9 19:39:58 10° SSE 19:44:04 41° E 19:48:14 10° NNE
Meteor 1-11 Rocket 4.0 19:39:39 10° SSE 19:45:00 43° E 19:50:29 10° NNE
H-2A R/B 2.9 19:45:43 35° ESE 19:46:39 43° ENE 19:50:11 10° N
PSLV R/B 3.1 19:44:30 10° WNW 19:47:38 72° SSW 19:48:21 48° SE
SL-8 R/B 3.6 19:47:46 10° NW 19:52:36 75° NE 19:54:34 36° ESE
Cosmos 2151 Rocket 4.0 19:49:28 10° SSW 19:53:53 65° W 19:58:23 10° N
CENTAUR R/B 3.5 19:49:18 10° NW 19:57:17 67° WSW 20:05:34 10° SSE
Cosmos 1818 3.6 19:55:09 10° SSW 20:00:35 82° WNW 20:05:17 14° NNE
Longmarch 3A Rocket 3.1 19:59:13 10° SW 19:59:58 16° SSW 19:59:58 16° SSW
FENGYUN 3A 3.7 19:55:35 10° SSE 20:00:59 84° WSW 20:06:26 10° NNW
Cosmos 1812 4.0 19:57:23 10° NNW 20:01:03 42° W 20:04:42 10° SSW
GOES 2 Rocket 4.2 19:59:01 10° WSW 20:03:02 31° SSW 20:04:15 26° SSE
BREEZE-M DEB (TANK) 4.0 20:02:43 10° NNW 20:04:21 22° NNE 20:04:21 22° NNE
Okean 1 Rocket 3.0 20:04:36 10° S 20:08:55 62° E 20:08:55 62° E
Cosmos 44 Rocket 4.2 20:07:23 10° NW 20:11:52 44° WSW 20:16:17 10° S
DELTA 2 R/B (1) 4.0 20:09:17 10° WNW 20:14:43 49° N 20:15:51 43° NE
Cosmos 1602 4.1 20:14:52 10° SSW 20:18:39 62° W 20:20:41 26° N
BREEZE-M DEB (TANK) 3.1 20:19:00 10° NW 20:23:47 61° WNW 20:23:47 61° WNW
Tiangong 2 3.8 20:22:28 10° NW 20:23:09 14° NNW 20:23:09 14° NNW
Cosmos 1461 4.0 20:22:36 10° NNW 20:25:02 35° NNW 20:25:02 35° NNW
Helios 1A 4.3 20:29:01 31° NNW 20:29:01 31° NNW 20:31:13 10° NNW
Cosmos 2360 Rocket 2.6 20:24:25 10° NNW 20:28:48 46° NNE 20:28:48 46° NNE
Resurs 01 Rocket 3.3 20:37:21 10° SSW 20:41:16 31° W 20:45:13 10° NW
H-2A R/B 4.3 20:44:49 10° SSW 21:22:25 - ENE 20:45:34 15° S
SL-16 R/B 4.0 20:54:39 10° NW 20:59:25 28° WSW 21:04:10 10° SSW
